Location: Devils Tower National Monument
(44.5904°N, 104.7201°W)
Time: 06:19:31
(UTC-07:00)

Envisat - Pass Details

Date: 26 January 2020
Orbit: 764 x 766 km, 98.1° (Epoch: 24 February)

Event Time Altitude Azimuth Distance (km) Brightness Sun altitude
Rises 18:10:54 0° 180° (S) 3,216 6.4 -12.9°
Reaches altitude 10° 18:13:15 10° 185° (S) 2,295 5.7 -13.3°
Maximum altitude 18:18:10 50° 261° (W) 972 4.0 -14.1°
Drops below altitude 10° 18:23:06 10° 336° (NNW) 2,311 5.6 -15.0°
Sets 18:25:30 0° 342° (NNW) 3,241 6.3 -15.4°
